[[{"header":{"parameterUnit":"m.s-1","parameterCategory":1,"la1":30.2991,"la2":30.254,"lo1":-89.0895,"lo2":-89.0444,"dy":0.0017,"dx":0.0017,"nx":28,"ny":28,"refTime":"2025-09-17T09:00:00:Z","depth":0,"parameterNumber":2,"parameterNumberName":"U-component_of_WINDS"},"data":[0,0,0,0,0,0,0,0,0,0,0,0,0,0,0,0,0,0,0,0,0,0,0,0,0,0,0,0,0,0,0,0,0,0,0,0,0,0,0,0,0,0,0,0,0,0,0,0,0,0,0,0,0,0,0,0,0,0,-0.1638,-0.1639,0,-0.1694,-0.1695,-0.1695,-0.1715,-0.1715,-0.1714,-0.1714,-0.1774,-0.1776,-0.1778,0,0,0,0,0,0,0,0,0,0,0,0,0,-0.1551,-0.1553,-0.1638,-0.1639,-0.164,-0.1694,-0.1695,-0.1696,-0.1715,-0.1715,-0.1714,-0.1714,-0.1774,-0.1776,-0.1778,0,0,0,0,0,0,0,0,0,0,0,0,0,-0.1596,-0.1553,-0.1638,-0.1656,-0.1658,-0.1694,-0.1695,-0.1696,-0.1715,-0.1715,-0.1714,-0.1714,-0.1773,-0.1776,-0.1778,-0.1802,0,0,-0.1787,-0.1788,0,0,0,0,0,0,0,0,-0.1594,-0.1599,-0.1652,-0.1655,-0.1657,-0.1697,-0.1686,-0.1731,-0.1715,-0.1693,-0.1714,-0.1714,-0.1749,-0.1754,-0.1765,-0.1805,-0.1807,-0.1787,-0.1789,-0.179,-0.179,0,0,0,0,0,0,0,-0.159,-0.1597,-0.166,-0.1653,-0.1656,-0.1662,-0.1668,-0.1695,-0.1723,-0.1695,-0.1697,-0.1703,-0.175,-0.1762,-0.1767,-0.1808,-0.1787,-0.1789,-0.1791,-0.1792,-0.1871,-0.1872,0,0,0,0,0,0,-0.1584,-0.1594,-0.1659,-0.1662,-0.1624,-0.1664,-0.167,-0.1685,-0.1722,-0.1728,-0.1703,-0.1704,-0.1758,-0.1763,-0.1769,-0.18,-0.179,-0.1792,-0.1794,-0.1871,-0.1871,-0.1872,0,0,0,0,0,0,-0.1582,-0.159,-0.1656,-0.1629,-0.1638,-0.1665,-0.1681,-0.1686,-0.1698,-0.1728,-0.1734,-0.171,-0.1758,-0.1765,-0.1794,-0.1802,-0.1793,-0.1796,-0.187,-0.1871,-0.1872,-0.1861,0,0,0,0,0,0,-0.1579,-0.1589,-0.1597,-0.1629,-0.1639,-0.1679,-0.1682,-0.1687,-0.1702,-0.1703,-0.1736,-0.1741,-0.1758,-0.1789,-0.1796,-0.1806,-0.1798,-0.187,-0.1871,-0.1871,-0.1861,-0.1862,-0.1862,0,0,0,0,0,-0.1576,-0.1592,-0.1597,-0.1605,-0.165,-0.168,-0.1686,-0.1704,-0.1703,-0.1712,-0.1732,-0.174,-0.18,-0.1792,-0.18,-0.1811,-0.1869,-0.187,-0.1871,-0.1861,-0.1862,-0.1862,0,0,0,0,0,0,-0.1562,-0.1597,-0.1603,-0.1629,-0.1651,-0.1683,-0.1695,-0.1704,-0.1727,-0.1727,-0.175,-0.1757,-0.1784,-0.18,-0.1791,-0.1836,-0.1835,-0.1838,-0.1825,-0.1825,-0.1826,-0.1822,-0.18,0,0,0,0,0,-0.1562,-0.1582,-0.1612,-0.1632,-0.1643,-0.1667,-0.1681,-0.1693,-0.1717,-0.1726,-0.1748,-0.1772,-0.1796,-0.1811,-0.1835,-0.1863,-0.1872,-0.1874,-0.1875,-0.1875,-0.1878,-0.1895,-0.1897,-0.1875,-0.1875,-0.1875,0,0,-0.1562,-0.1583,-0.1595,-0.163,-0.1648,-0.167,-0.1675,-0.1697,-0.1714,-0.173,-0.1758,-0.1775,-0.1803,-0.1832,-0.1846,-0.1846,-0.1885,-0.1877,-0.1877,-0.1879,-0.1896,-0.1898,-0.19,-0.1876,-0.1876,-0.1876,0,0,-0.1573,-0.1591,-0.1611,-0.1629,-0.1656,-0.1672,-0.1677,-0.1707,-0.1719,-0.1747,-0.176,-0.1781,-0.1822,-0.1841,-0.1857,-0.1876,-0.1886,-0.1883,-0.1887,-0.1903,-0.1905,-0.1907,-0.1915,-0.1917,-0.1885,-0.1885,-0.1885,0,-0.157,-0.1602,-0.162,-0.1642,-0.1658,-0.1672,-0.1693,-0.171,-0.1744,-0.1755,-0.1755,-0.1807,-0.1827,-0.1861,-0.1866,-0.1877,-0.1885,-0.188,-0.1903,-0.1905,-0.1907,-0.1915,-0.1918,-0.1885,-0.1885,-0.1885,-0.1885,0,-0.1598,-0.162,-0.1633,-0.1665,-0.1682,-0.1703,-0.1725,-0.174,-0.1751,-0.1767,-0.1797,-0.1821,-0.185,-0.1859,-0.187,-0.1895,-0.1895,-0.1898,-0.1898,-0.1908,-0.1916,-0.1919,-0.1885,-0.1885,-0.1885,-0.1885,0,0,-0.1603,-0.1644,-0.1648,-0.1664,-0.1695,-0.1713,-0.1735,-0.1763,-0.1777,-0.18,-0.182,-0.1854,-0.1858,-0.1876,-0.1889,-0.1903,-0.1918,-0.1905,-0.1906,-0.1908,-0.1949,-0.1947,-0.1951,-0.1924,-0.1925,-0.1925,-0.1948,0,-0.1619,-0.1659,-0.1675,-0.1708,-0.1729,-0.1744,-0.1764,-0.1786,-0.1802,-0.1823,-0.1841,-0.1865,-0.1868,-0.1878,-0.1893,-0.1913,-0.1927,-0.1912,-0.1945,-0.1946,-0.1939,-0.1955,-0.1952,-0.1972,-0.1951,-0.1951,-0.1952,0,-0.1644,-0.1666,-0.1701,-0.173,-0.174,-0.1757,-0.1785,-0.1805,-0.183,-0.1841,-0.1861,-0.1873,-0.1898,-0.1896,-0.1932,-0.1921,-0.1935,-0.1947,-0.1949,-0.1954,-0.195,-0.1961,-0.1979,-0.1982,-0.1956,-0.1956,-0.1956,0,-0.1645,-0.1684,-0.171,-0.1722,-0.1757,-0.1769,-0.1785,-0.181,-0.1826,-0.185,-0.1861,-0.1888,-0.1904,-0.1925,-0.1945,-0.1941,-0.198,-0.1978,-0.1991,-0.199,-0.1999,-0.1999,-0.2021,-0.2006,-0.2006,-0.2006,-0.2006,0,-0.1662,-0.1683,-0.1711,-0.1727,-0.1752,-0.1771,-0.1795,-0.1811,-0.1834,-0.1854,-0.1868,-0.1887,-0.1912,-0.1935,-0.195,-0.1979,-0.1985,-0.1996,-0.2,-0.1995,-0.1994,-0.2006,-0.2006,-0.2007,-0.2007,-0.2006,-0.2006,0,-0.1668,-0.1687,-0.1717,-0.1748,-0.1756,-0.1772,-0.1799,-0.1816,-0.1833,-0.1858,-0.1866,-0.1892,-0.1919,-0.1941,-0.1977,-0.1988,-0.2018,-0.2022,-0.2009,-0.2012,-0.2023,-0.2022,-0.2055,-0.2061,-0.2041,-0.2041,-0.2041,0,-0.1678,-0.1695,-0.1727,-0.1741,-0.1756,-0.1779,-0.1796,-0.1815,-0.1832,-0.1863,-0.1877,-0.1905,-0.1929,-0.1972,-0.1995,-0.2023,-0.2029,-0.2038,-0.2033,-0.2028,-0.2031,-0.203,-0.2033,-0.2039,-0.2039,-0.2039,-0.2039,0,-0.1695,-0.1704,-0.1726,-0.1753,-0.1772,-0.1794,-0.1816,-0.1827,-0.1851,-0.187,-0.1897,-0.1916,-0.1952,-0.1981,-0.2011,-0.2028,-0.2039,-0.2041,-0.2045,-0.2041,-0.2034,-0.204,-0.2012,-0.204,-0.204,-0.204,-0.204,-0.204,-0.1704,-0.172,-0.1745,-0.177,-0.1789,-0.181,-0.1827,-0.1846,-0.1869,-0.19,-0.191,-0.194,-0.1966,-0.2008,-0.2025,-0.2049,-0.205,-0.2056,-0.2058,-0.206,-0.206,-0.2029,-0.2055,-0.2055,-0.2055,-0.2055,-0.2055,0,-0.1723,-0.174,-0.1763,-0.1793,-0.1813,-0.182,-0.1845,-0.1862,-0.1887,-0.191,-0.1933,-0.1966,-0.1994,-0.2019,-0.2048,-0.2063,-0.2068,-0.207,-0.207,-0.2074,-0.2057,-0.2051,-0.2065,-0.2065,-0.2065,-0.2065,-0.2065,-0.2065,-0.1735,-0.1762,-0.1774,-0.1811,-0.1829,-0.1857,-0.1871,-0.189,-0.1909,-0.1945,-0.1968,-0.1983,-0.2008,-0.2039,-0.2066,-0.2073,-0.2083,-0.2084,-0.2092,-0.2076,-0.2075,-0.2074,-0.2068,-0.2086,-0.2086,-0.2108,-0.2108,-0.2108]},{"header":{"parameterUnit":"m.s-1","parameterCategory":1,"la1":30.2991,"la2":30.254,"lo1":-89.0895,"lo2":-89.0444,"dy":0.0017,"dx":0.0017,"nx":28,"ny":28,"refTime":"2025-09-17T09:00:00:Z","depth":0,"parameterNumber":3,"parameterNumberName":"V-component_of_WINDS"},"data":[0,0,0,0,0,0,0,0,0,0,0,0,0,0,0,0,0,0,0,0,0,0,0,0,0,0,0,0,0,0,0,0,0,0,0,0,0,0,0,0,0,0,0,0,0,0,0,0,0,0,0,0,0,0,0,0,0,0,-1.7007,-1.7007,0,-1.7014,-1.7015,-1.7015,-1.7015,-1.7015,-1.7015,-1.7014,-1.7022,-1.7022,-1.7022,0,0,0,0,0,0,0,0,0,0,0,0,0,-1.6991,-1.6992,-1.7007,-1.7007,-1.7007,-1.7014,-1.7015,-1.7015,-1.7015,-1.7015,-1.7015,-1.7014,-1.7022,-1.7022,-1.7022,0,0,0,0,0,0,0,0,0,0,0,0,0,-1.6998,-1.6992,-1.7007,-1.7008,-1.7008,-1.7014,-1.7015,-1.7015,-1.7015,-1.7015,-1.7014,-1.7014,-1.7022,-1.7022,-1.7023,-1.7028,0,0,-1.7024,-1.7024,0,0,0,0,0,0,0,0,-1.6998,-1.6999,-1.7008,-1.7008,-1.7008,-1.7014,-1.7012,-1.7019,-1.7015,-1.7012,-1.7014,-1.7014,-1.7019,-1.702,-1.7022,-1.7028,-1.7029,-1.7024,-1.7024,-1.7024,-1.7024,0,0,0,0,0,0,0,-1.6998,-1.6999,-1.701,-1.7008,-1.7008,-1.7008,-1.7009,-1.7013,-1.7016,-1.7012,-1.7012,-1.7013,-1.7019,-1.7021,-1.7022,-1.7029,-1.7024,-1.7024,-1.7025,-1.7025,-1.704,-1.704,0,0,0,0,0,0,-1.6997,-1.6998,-1.701,-1.701,-1.7003,-1.7008,-1.7009,-1.7012,-1.7016,-1.7017,-1.7014,-1.7013,-1.702,-1.7021,-1.7022,-1.7028,-1.7024,-1.7025,-1.7025,-1.704,-1.704,-1.704,0,0,0,0,0,0,-1.6997,-1.6998,-1.7009,-1.7004,-1.7006,-1.7009,-1.7012,-1.7012,-1.7014,-1.7017,-1.7018,-1.7015,-1.702,-1.7021,-1.7026,-1.7029,-1.7025,-1.7025,-1.704,-1.704,-1.704,-1.7042,0,0,0,0,0,0,-1.6996,-1.6998,-1.7,-1.7004,-1.7006,-1.7014,-1.7012,-1.7012,-1.7015,-1.7015,-1.7019,-1.7019,-1.702,-1.7026,-1.7027,-1.7029,-1.7026,-1.704,-1.704,-1.704,-1.7041,-1.7042,-1.7042,0,0,0,0,0,-1.6996,-1.7,-1.7,-1.7002,-1.7009,-1.7014,-1.7015,-1.7016,-1.7015,-1.7017,-1.7019,-1.7019,-1.7028,-1.7026,-1.7028,-1.703,-1.704,-1.704,-1.704,-1.7041,-1.7042,-1.7042,0,0,0,0,0,0,-1.6996,-1.7001,-1.7001,-1.7007,-1.701,-1.7014,-1.7017,-1.7017,-1.702,-1.702,-1.7022,-1.7023,-1.7028,-1.7029,-1.7027,-1.7036,-1.7034,-1.7034,-1.7034,-1.7035,-1.7035,-1.7034,-1.7026,0,0,0,0,0,-1.6997,-1.7001,-1.7005,-1.7009,-1.7011,-1.7014,-1.7016,-1.7017,-1.702,-1.7021,-1.7024,-1.7027,-1.703,-1.7033,-1.7036,-1.7042,-1.7042,-1.7044,-1.7045,-1.7045,-1.7045,-1.7048,-1.7049,-1.7042,-1.7042,-1.7042,0,0,-1.6999,-1.7002,-1.7004,-1.701,-1.7012,-1.7016,-1.7015,-1.7019,-1.7022,-1.7022,-1.7027,-1.7029,-1.7032,-1.7037,-1.704,-1.7039,-1.7047,-1.7045,-1.7046,-1.7046,-1.7049,-1.7049,-1.705,-1.7042,-1.7042,-1.7042,0,0,-1.7003,-1.7006,-1.701,-1.7013,-1.7017,-1.7019,-1.702,-1.7024,-1.7025,-1.703,-1.703,-1.7033,-1.704,-1.7042,-1.7044,-1.705,-1.705,-1.7051,-1.7053,-1.7056,-1.7056,-1.7057,-1.7058,-1.7059,-1.7051,-1.7051,-1.7051,0,-1.7005,-1.7011,-1.7013,-1.7017,-1.7019,-1.702,-1.7024,-1.7026,-1.7031,-1.7032,-1.7032,-1.7039,-1.7042,-1.7047,-1.7049,-1.7051,-1.7052,-1.705,-1.7056,-1.7057,-1.7057,-1.7059,-1.7059,-1.7051,-1.7051,-1.7051,-1.7051,0,-1.7012,-1.7016,-1.7019,-1.7024,-1.7027,-1.7031,-1.7033,-1.7035,-1.7036,-1.7038,-1.7043,-1.7046,-1.705,-1.7051,-1.7052,-1.7057,-1.7056,-1.7056,-1.7054,-1.7058,-1.7059,-1.706,-1.7052,-1.7051,-1.7051,-1.7051,0,0,-1.7017,-1.7023,-1.7024,-1.7026,-1.703,-1.7033,-1.7037,-1.7041,-1.7043,-1.7047,-1.705,-1.7055,-1.7055,-1.7057,-1.7058,-1.706,-1.7064,-1.706,-1.706,-1.706,-1.707,-1.707,-1.7071,-1.7064,-1.7065,-1.7065,-1.7069,0,-1.7022,-1.703,-1.7031,-1.7037,-1.7041,-1.7042,-1.7045,-1.7048,-1.705,-1.7053,-1.7055,-1.7058,-1.7058,-1.7059,-1.7061,-1.7063,-1.7066,-1.7063,-1.7067,-1.7067,-1.7066,-1.7072,-1.7072,-1.7076,-1.707,-1.707,-1.707,0,-1.7029,-1.7033,-1.7039,-1.7043,-1.7044,-1.7047,-1.7051,-1.7054,-1.7058,-1.7059,-1.7061,-1.7062,-1.7066,-1.7064,-1.707,-1.7067,-1.7069,-1.707,-1.7071,-1.7071,-1.7069,-1.7071,-1.7077,-1.7078,-1.7071,-1.7071,-1.7071,0,-1.7032,-1.7038,-1.7043,-1.7045,-1.7049,-1.7051,-1.7053,-1.7056,-1.7058,-1.7062,-1.7063,-1.7067,-1.7069,-1.7071,-1.7073,-1.7072,-1.7078,-1.7077,-1.7079,-1.7079,-1.708,-1.708,-1.7086,-1.7082,-1.7082,-1.7082,-1.7082,0,-1.7037,-1.7041,-1.7044,-1.7047,-1.7051,-1.7053,-1.7057,-1.7059,-1.7062,-1.7065,-1.7066,-1.7068,-1.7071,-1.7074,-1.7075,-1.7079,-1.708,-1.7081,-1.7081,-1.7081,-1.708,-1.7082,-1.7081,-1.7082,-1.7082,-1.7082,-1.7082,0,-1.704,-1.7043,-1.7048,-1.7052,-1.7053,-1.7056,-1.7059,-1.7061,-1.7063,-1.7067,-1.7068,-1.7071,-1.7074,-1.7076,-1.7081,-1.7082,-1.7086,-1.7087,-1.7085,-1.7085,-1.7087,-1.7087,-1.7094,-1.7095,-1.7091,-1.7091,-1.7091,0,-1.7043,-1.7046,-1.7051,-1.7053,-1.7055,-1.7058,-1.7061,-1.7062,-1.7065,-1.7069,-1.7071,-1.7075,-1.7078,-1.7083,-1.7086,-1.7089,-1.7089,-1.7092,-1.709,-1.7089,-1.7089,-1.7089,-1.7089,-1.7092,-1.7092,-1.7092,-1.7092,0,-1.7048,-1.7049,-1.7053,-1.7056,-1.7059,-1.7062,-1.7065,-1.7067,-1.7069,-1.7072,-1.7076,-1.7078,-1.7083,-1.7086,-1.709,-1.7092,-1.7092,-1.7093,-1.7093,-1.7092,-1.7091,-1.7092,-1.7086,-1.7092,-1.7092,-1.7092,-1.7092,-1.7092,-1.7051,-1.7054,-1.7057,-1.7061,-1.7063,-1.7066,-1.7069,-1.7071,-1.7074,-1.7078,-1.7079,-1.7083,-1.7086,-1.7091,-1.7093,-1.7096,-1.7096,-1.7097,-1.7097,-1.7097,-1.7097,-1.7091,-1.7097,-1.7097,-1.7097,-1.7097,-1.7097,0,-1.7056,-1.7058,-1.7062,-1.7066,-1.7069,-1.7069,-1.7072,-1.7074,-1.7078,-1.7081,-1.7084,-1.7088,-1.7092,-1.7094,-1.7098,-1.71,-1.71,-1.7101,-1.71,-1.7101,-1.7097,-1.7096,-1.71,-1.71,-1.71,-1.71,-1.71,-1.71,-1.7059,-1.7063,-1.7064,-1.707,-1.7072,-1.7076,-1.7078,-1.708,-1.7082,-1.7087,-1.709,-1.7092,-1.7095,-1.7098,-1.7102,-1.7102,-1.7103,-1.7104,-1.7105,-1.7101,-1.7101,-1.7101,-1.71,-1.7104,-1.7104,-1.7108,-1.7108,-1.7108]}]]